Voltar ao catálogo

STARLINK-5214

AtivoComunicaçõesVLEO
NORAD 54762·PAYLOAD·🇺🇸 United States

Lançado Dec 17, 2022 de Cape Canaveral Space Force Station

Loading…

Próximas Passagens (próximas 24 horas)

TLE

AtualizadoSource: CelesTrak SupGP

Época: Sep 14, 2026, 21:07 UTC

1 54762C 22175E   26257.88034722 -.00058653  00000+0 -18871-2 0  2579
2 54762  53.1556 260.9828 0001335  88.3813  98.1455 15.31714680    18

Acompanhe STARLINK-5214 em tempo real com AllMySat

Download on the App Store